Data supplied by UK-AIR on 30/3/2009
All Data GMT hour ending 
Status: R =Ratified P=Provisional,P*=As supplied
,,Bush Estate,,,,,,,,,,,,,,,,,,,,,,,
Date,time,"Nitric oxide",status,unit,"Nitrogen dioxide",status,unit,"Nitrogen oxides as nitrogen dioxide",status,unit,"Ozone",status,unit
 
01-01-2008,01:00,,,,,,,,,,,,
01-01-2008,02:00,,,,,,,,,,38,R,ugm-3
01-01-2008,03:00,,,,,,,,,,42,R,ugm-3
01-01-2008,04:00,0.0,R,ugm-3,5.5,R,ugm-3,5.5,R,ugm-3,42,R,ugm-3
01-01-2008,05:00,0.0,R,ugm-3,4.6,R,ugm-3,4.6,R,ugm-3,40,R,ugm-3
01-01-2008,06:00,0.0,R,ugm-3,6.1,R,ugm-3,6.1,R,ugm-3,42,R,ugm-3
01-01-2008,07:00,0.0,R,ugm-3,5.5,R,ugm-3,5.5,R,ugm-3,42,R,ugm-3
01-01-2008,08:00,0.0,R,ugm-3,7.1,R,ugm-3,7.1,R,ugm-3,42,R,ugm-3
01-01-2008,09:00,0.0,R,ugm-3,5.5,R,ugm-3,5.5,R,ugm-3,44,R,ugm-3
01-01-2008,10:00,0.0,R,ugm-3,5.5,R,ugm-3,5.5,R,ugm-3,42,R,ugm-3
01-01-2008,11:00,0.6,R,ugm-3,12.2,R,ugm-3,13.2,R,ugm-3,28,R,ugm-3
01-01-2008,12:00,3.0,R,ugm-3,15.3,R,ugm-3,19.9,R,ugm-3,10,R,ugm-3
01-01-2008,13:00,1.4,R,ugm-3,11.7,R,ugm-3,13.8,R,ugm-3,18,R,ugm-3
01-01-2008,14:00,0.0,R,ugm-3,11.7,R,ugm-3,11.7,R,ugm-3,18,R,ugm-3
01-01-2008,15:00,0.4,R,ugm-3,10.7,R,ugm-3,11.3,R,ugm-3,22,R,ugm-3
01-01-2008,16:00,0.0,R,ugm-3,10.1,R,ugm-3,10.1,R,ugm-3,24,R,ugm-3
01-01-2008,17:00,1.4,R,ugm-3,24.4,R,ugm-3,26.5,R,ugm-3,10,R,ugm-3
01-01-2008,18:00,26.5,R,ugm-3,37.2,R,ugm-3,77.7,R,ugm-3,2,R,ugm-3
01-01-2008,19:00,19.9,R,ugm-3,34.8,R,ugm-3,65.1,R,ugm-3,0,R,ugm-3
01-01-2008,20:00,11.6,R,ugm-3,25.0,R,ugm-3,42.8,R,ugm-3,14,R,ugm-3
01-01-2008,21:00,0.0,R,ugm-3,13.8,R,ugm-3,13.8,R,ugm-3,24,R,ugm-3
01-01-2008,22:00,0.0,R,ugm-3,10.1,R,ugm-3,10.1,R,ugm-3,26,R,ugm-3
01-01-2008,23:00,0.0,R,ugm-3,7.1,R,ugm-3,7.1,R,ugm-3,34,R,ugm-3
01-01-2008,24:00,0.0,R,ugm-3,4.6,R,ugm-3,4.6,R,ugm-3,42,R,ugm-3
02-01-2008,01:00,0.0,R,ugm-3,4.0,R,ugm-3,4.0,R,ugm-3,38,R,ugm-3
02-01-2008,02:00,,,,,,,,,,44,R,ugm-3
02-01-2008,03:00,,,,,,,,,,48,R,ugm-3
02-01-2008,04:00,0.0,R,ugm-3,2.1,R,ugm-3,2.1,R,ugm-3,56,R,ugm-3
02-01-2008,05:00,0.0,R,ugm-3,2.1,R,ugm-3,2.1,R,ugm-3,52,R,ugm-3
02-01-2008,06:00,0.0,R,ugm-3,3.1,R,ugm-3,3.1,R,ugm-3,50,R,ugm-3
02-01-2008,07:00,0.0,R,ugm-3,5.2,R,ugm-3,5.2,R,ugm-3,46,R,ugm-3
02-01-2008,08:00,0.0,R,ugm-3,17.4,R,ugm-3,17.4,R,ugm-3,24,R,ugm-3
02-01-2008,09:00,0.0,R,ugm-3,14.7,R,ugm-3,14.7,R,ugm-3,24,R,ugm-3
02-01-2008,10:00,0.4,R,ugm-3,15.3,R,ugm-3,15.9,R,ugm-3,14,R,ugm-3
02-01-2008,11:00,2.6,R,ugm-3,22.0,R,ugm-3,26.0,R,ugm-3,14,R,ugm-3
02-01-2008,12:00,2.6,R,ugm-3,24.1,R,ugm-3,28.1,R,ugm-3,18,R,ugm-3
02-01-2008,13:00,1.8,R,ugm-3,17.8,R,ugm-3,20.4,R,ugm-3,26,R,ugm-3
02-01-2008,14:00,1.0,R,ugm-3,11.7,R,ugm-3,13.2,R,ugm-3,36,R,ugm-3
02-01-2008,15:00,0.0,R,ugm-3,9.2,R,ugm-3,9.2,R,ugm-3,50,R,ugm-3
02-01-2008,16:00,0.0,R,ugm-3,8.2,R,ugm-3,8.2,R,ugm-3,54,R,ugm-3
02-01-2008,17:00,0.0,R,ugm-3,2.1,R,ugm-3,2.1,R,ugm-3,60,R,ugm-3
02-01-2008,18:00,0.0,R,ugm-3,3.1,R,ugm-3,3.1,R,ugm-3,60,R,ugm-3
02-01-2008,19:00,0.0,R,ugm-3,2.1,R,ugm-3,2.1,R,ugm-3,62,R,ugm-3
02-01-2008,20:00,0.0,R,ugm-3,2.1,R,ugm-3,2.1,R,ugm-3,64,R,ugm-3
02-01-2008,21:00,0.0,R,ugm-3,2.1,R,ugm-3,2.1,R,ugm-3,62,R,ugm-3
02-01-2008,22:00,0.0,R,ugm-3,2.1,R,ugm-3,2.1,R,ugm-3,56,R,ugm-3
02-01-2008,23:00,0.0,R,ugm-3,2.1,R,ugm-3,2.1,R,ugm-3,48,R,ugm-3
02-01-2008,24:00,0.0,R,ugm-3,1.5,R,ugm-3,1.5,R,ugm-3,54,R,ugm-3
03-01-2008,01:00,0.0,R,ugm-3,2.1,R,ugm-3,2.1,R,ugm-3,56,R,ugm-3
03-01-2008,02:00,,,,,,,,,,54,R,ugm-3
03-01-2008,03:00,,,,,,,,,,56,R,ugm-3
03-01-2008,04:00,0.0,R,ugm-3,2.1,R,ugm-3,2.1,R,ugm-3,52,R,ugm-3
03-01-2008,05:00,0.0,R,ugm-3,2.1,R,ugm-3,2.1,R,ugm-3,52,R,ugm-3
03-01-2008,06:00,0.0,R,ugm-3,2.1,R,ugm-3,2.1,R,ugm-3,52,R,ugm-3
03-01-2008,07:00,0.0,R,ugm-3,4.2,R,ugm-3,4.2,R,ugm-3,50,R,ugm-3
03-01-2008,08:00,0.0,R,ugm-3,4.6,R,ugm-3,4.6,R,ugm-3,48,R,ugm-3
03-01-2008,09:00,0.0,R,ugm-3,9.2,R,ugm-3,9.2,R,ugm-3,48,R,ugm-3
03-01-2008,10:00,0.0,R,ugm-3,8.2,R,ugm-3,8.2,R,ugm-3,48,R,ugm-3
03-01-2008,11:00,2.4,R,ugm-3,13.4,R,ugm-3,17.0,R,ugm-3,42,R,ugm-3
03-01-2008,12:00,0.6,R,ugm-3,8.2,R,ugm-3,9.2,R,ugm-3,46,R,ugm-3
03-01-2008,13:00,0.8,R,ugm-3,7.3,R,ugm-3,8.4,R,ugm-3,48,R,ugm-3
03-01-2008,14:00,1.0,R,ugm-3,9.4,R,ugm-3,10.9,R,ugm-3,46,R,ugm-3
03-01-2008,15:00,1.4,R,ugm-3,11.8,R,ugm-3,13.9,R,ugm-3,42,R,ugm-3
03-01-2008,16:00,0.0,R,ugm-3,8.2,R,ugm-3,8.2,R,ugm-3,46,R,ugm-3
03-01-2008,17:00,0.0,R,ugm-3,13.4,R,ugm-3,13.4,R,ugm-3,40,R,ugm-3
03-01-2008,18:00,0.0,R,ugm-3,7.6,R,ugm-3,7.6,R,ugm-3,46,R,ugm-3
03-01-2008,19:00,0.0,R,ugm-3,3.1,R,ugm-3,3.1,R,ugm-3,54,R,ugm-3
03-01-2008,20:00,0.0,R,ugm-3,2.1,R,ugm-3,2.1,R,ugm-3,56,R,ugm-3
03-01-2008,21:00,0.0,R,ugm-3,3.6,R,ugm-3,3.6,R,ugm-3,52,R,ugm-3
03-01-2008,22:00,0.0,R,ugm-3,8.2,R,ugm-3,8.2,R,ugm-3,44,R,ugm-3
03-01-2008,23:00,0.0,R,ugm-3,2.1,R,ugm-3,2.1,R,ugm-3,52,R,ugm-3
03-01-2008,24:00,0.0,R,ugm-3,4.6,R,ugm-3,4.6,R,ugm-3,46,R,ugm-3
04-01-2008,01:00,0.0,R,ugm-3,5.3,R,ugm-3,5.3,R,ugm-3,44,R,ugm-3
04-01-2008,02:00,,,,,,,,,,42,R,ugm-3
04-01-2008,03:00,,,,,,,,,,42,R,ugm-3
04-01-2008,04:00,0.0,R,ugm-3,6.1,R,ugm-3,6.1,R,ugm-3,42,R,ugm-3
04-01-2008,05:00,0.0,R,ugm-3,6.1,R,ugm-3,6.1,R,ugm-3,38,R,ugm-3
04-01-2008,06:00,0.0,R,ugm-3,7.6,R,ugm-3,7.6,R,ugm-3,34,R,ugm-3
04-01-2008,07:00,0.0,R,ugm-3,10.9,R,ugm-3,10.9,R,ugm-3,28,R,ugm-3
04-01-2008,08:00,1.4,R,ugm-3,17.0,R,ugm-3,19.1,R,ugm-3,18,R,ugm-3
04-01-2008,09:00,3.0,R,ugm-3,22.2,R,ugm-3,26.7,R,ugm-3,10,R,ugm-3
04-01-2008,10:00,3.0,R,ugm-3,13.9,R,ugm-3,18.5,R,ugm-3,24,R,ugm-3
04-01-2008,11:00,5.4,R,ugm-3,17.0,R,ugm-3,25.2,R,ugm-3,22,R,ugm-3
04-01-2008,12:00,3.6,R,ugm-3,15.9,R,ugm-3,21.4,R,ugm-3,32,R,ugm-3
04-01-2008,13:00,1.4,R,ugm-3,8.2,R,ugm-3,10.3,R,ugm-3,42,R,ugm-3
04-01-2008,14:00,1.0,R,ugm-3,8.2,R,ugm-3,9.7,R,ugm-3,44,R,ugm-3
04-01-2008,15:00,0.4,R,ugm-3,9.7,R,ugm-3,10.3,R,ugm-3,44,R,ugm-3
04-01-2008,16:00,0.4,R,ugm-3,15.9,R,ugm-3,16.4,R,ugm-3,36,R,ugm-3
04-01-2008,17:00,1.4,R,ugm-3,20.4,R,ugm-3,22.5,R,ugm-3,32,R,ugm-3
04-01-2008,18:00,0.0,R,ugm-3,22.5,R,ugm-3,22.5,R,ugm-3,26,R,ugm-3
04-01-2008,19:00,0.6,R,ugm-3,34.4,R,ugm-3,35.3,R,ugm-3,12,R,ugm-3
04-01-2008,20:00,0.0,R,ugm-3,33.8,R,ugm-3,33.8,R,ugm-3,8,R,ugm-3
04-01-2008,21:00,0.0,R,ugm-3,28.1,R,ugm-3,28.1,R,ugm-3,12,R,ugm-3
04-01-2008,22:00,0.0,R,ugm-3,22.5,R,ugm-3,22.5,R,ugm-3,22,R,ugm-3
04-01-2008,23:00,0.0,R,ugm-3,18.3,R,ugm-3,18.3,R,ugm-3,28,R,ugm-3
04-01-2008,24:00,0.0,R,ugm-3,7.3,R,ugm-3,7.3,R,ugm-3,56,R,ugm-3
05-01-2008,01:00,0.0,R,ugm-3,4.8,R,ugm-3,4.8,R,ugm-3,64,R,ugm-3
05-01-2008,02:00,,,,,,,,,,62,R,ugm-3
05-01-2008,03:00,,,,,,,,,,68,R,ugm-3
05-01-2008,04:00,0.0,R,ugm-3,4.0,R,ugm-3,4.0,R,ugm-3,72,R,ugm-3
05-01-2008,05:00,0.0,R,ugm-3,3.6,R,ugm-3,3.6,R,ugm-3,72,R,ugm-3
05-01-2008,06:00,0.0,R,ugm-3,4.0,R,ugm-3,4.0,R,ugm-3,70,R,ugm-3
05-01-2008,07:00,0.0,R,ugm-3,3.1,R,ugm-3,3.1,R,ugm-3,70,R,ugm-3
05-01-2008,08:00,0.0,R,ugm-3,3.6,R,ugm-3,3.6,R,ugm-3,70,R,ugm-3
05-01-2008,09:00,0.0,R,ugm-3,3.1,R,ugm-3,3.1,R,ugm-3,72,R,ugm-3
05-01-2008,10:00,0.0,R,ugm-3,3.1,R,ugm-3,3.1,R,ugm-3,74,R,ugm-3
05-01-2008,11:00,0.0,R,ugm-3,3.1,R,ugm-3,3.1,R,ugm-3,74,R,ugm-3
05-01-2008,12:00,0.0,R,ugm-3,3.1,R,ugm-3,3.1,R,ugm-3,76,R,ugm-3
05-01-2008,13:00,0.0,R,ugm-3,4.0,R,ugm-3,4.0,R,ugm-3,72,R,ugm-3
05-01-2008,14:00,0.0,R,ugm-3,2.7,R,ugm-3,2.7,R,ugm-3,70,R,ugm-3
05-01-2008,15:00,0.0,R,ugm-3,3.6,R,ugm-3,3.6,R,ugm-3,68,R,ugm-3
05-01-2008,16:00,0.0,R,ugm-3,3.6,R,ugm-3,3.6,R,ugm-3,70,R,ugm-3
05-01-2008,17:00,0.0,R,ugm-3,3.1,R,ugm-3,3.1,R,ugm-3,74,R,ugm-3
05-01-2008,18:00,0.0,R,ugm-3,2.5,R,ugm-3,2.5,R,ugm-3,76,R,ugm-3
05-01-2008,19:00,0.0,R,ugm-3,1.5,R,ugm-3,1.5,R,ugm-3,76,R,ugm-3
05-01-2008,20:00,0.0,R,ugm-3,2.1,R,ugm-3,2.1,R,ugm-3,72,R,ugm-3
05-01-2008,21:00,0.0,R,ugm-3,2.1,R,ugm-3,2.1,R,ugm-3,68,R,ugm-3
05-01-2008,22:00,0.0,R,ugm-3,0.6,R,ugm-3,0.6,R,ugm-3,68,R,ugm-3
05-01-2008,23:00,0.0,R,ugm-3,0.6,R,ugm-3,0.6,R,ugm-3,66,R,ugm-3
05-01-2008,24:00,0.0,R,ugm-3,0.0,R,ugm-3,0.0,R,ugm-3,68,R,ugm-3
06-01-2008,01:00,0.0,R,ugm-3,0.0,R,ugm-3,0.0,R,ugm-3,66,R,ugm-3
06-01-2008,02:00,,,,,,,,,,68,R,ugm-3
06-01-2008,03:00,,,,,,,,,,68,R,ugm-3
06-01-2008,04:00,0.0,R,ugm-3,1.5,R,ugm-3,1.5,R,ugm-3,66,R,ugm-3
06-01-2008,05:00,0.0,R,ugm-3,0.6,R,ugm-3,0.6,R,ugm-3,66,R,ugm-3
06-01-2008,06:00,0.0,R,ugm-3,0.0,R,ugm-3,0.0,R,ugm-3,68,R,ugm-3
06-01-2008,07:00,0.0,R,ugm-3,0.0,R,ugm-3,0.0,R,ugm-3,68,R,ugm-3
06-01-2008,08:00,0.0,R,ugm-3,0.0,R,ugm-3,0.0,R,ugm-3,68,R,ugm-3
06-01-2008,09:00,0.0,R,ugm-3,0.0,R,ugm-3,0.0,R,ugm-3,68,R,ugm-3
06-01-2008,10:00,0.0,R,ugm-3,0.6,R,ugm-3,0.6,R,ugm-3,72,R,ugm-3
06-01-2008,11:00,0.0,R,ugm-3,3.2,R,ugm-3,3.2,R,ugm-3,68,R,ugm-3
06-01-2008,12:00,0.0,R,ugm-3,3.2,R,ugm-3,3.2,R,ugm-3,70,R,ugm-3
06-01-2008,13:00,0.0,R,ugm-3,3.2,R,ugm-3,3.2,R,ugm-3,70,R,ugm-3
06-01-2008,14:00,0.0,R,ugm-3,4.2,R,ugm-3,4.2,R,ugm-3,68,R,ugm-3
06-01-2008,15:00,0.0,R,ugm-3,4.2,R,ugm-3,4.2,R,ugm-3,66,R,ugm-3
06-01-2008,16:00,0.0,R,ugm-3,4.2,R,ugm-3,4.2,R,ugm-3,62,R,ugm-3
06-01-2008,17:00,0.0,R,ugm-3,6.1,R,ugm-3,6.1,R,ugm-3,52,R,ugm-3
06-01-2008,18:00,0.0,R,ugm-3,10.3,R,ugm-3,10.3,R,ugm-3,48,R,ugm-3
06-01-2008,19:00,0.0,R,ugm-3,12.4,R,ugm-3,12.4,R,ugm-3,40,R,ugm-3
06-01-2008,20:00,0.0,R,ugm-3,13.0,R,ugm-3,13.0,R,ugm-3,44,R,ugm-3
06-01-2008,21:00,0.0,R,ugm-3,6.7,R,ugm-3,6.7,R,ugm-3,54,R,ugm-3
06-01-2008,22:00,0.0,R,ugm-3,7.6,R,ugm-3,7.6,R,ugm-3,52,R,ugm-3
06-01-2008,23:00,0.0,R,ugm-3,6.7,R,ugm-3,6.7,R,ugm-3,54,R,ugm-3
06-01-2008,24:00,0.0,R,ugm-3,4.2,R,ugm-3,4.2,R,ugm-3,52,R,ugm-3
07-01-2008,01:00,0.0,R,ugm-3,5.5,R,ugm-3,5.5,R,ugm-3,48,R,ugm-3
07-01-2008,02:00,,,,,,,,,,62,R,ugm-3
07-01-2008,03:00,,,,,,,,,,60,R,ugm-3
07-01-2008,04:00,0.0,R,ugm-3,2.7,R,ugm-3,2.7,R,ugm-3,68,R,ugm-3
07-01-2008,05:00,0.0,R,ugm-3,2.7,R,ugm-3,2.7,R,ugm-3,70,R,ugm-3
07-01-2008,06:00,0.0,R,ugm-3,2.1,R,ugm-3,2.1,R,ugm-3,66,R,ugm-3
07-01-2008,07:00,0.0,R,ugm-3,3.2,R,ugm-3,3.2,R,ugm-3,66,R,ugm-3
07-01-2008,08:00,0.0,R,ugm-3,10.3,R,ugm-3,10.3,R,ugm-3,54,R,ugm-3
07-01-2008,09:00,0.0,R,ugm-3,7.6,R,ugm-3,7.6,R,ugm-3,56,R,ugm-3
07-01-2008,10:00,2.4,R,ugm-3,20.1,R,ugm-3,23.7,R,ugm-3,46,R,ugm-3
07-01-2008,11:00,1.8,R,ugm-3,10.3,R,ugm-3,13.0,R,ugm-3,54,R,ugm-3
07-01-2008,12:00,1.4,R,ugm-3,6.7,R,ugm-3,8.8,R,ugm-3,58,R,ugm-3
07-01-2008,13:00,0.4,R,ugm-3,3.6,R,ugm-3,4.2,R,ugm-3,64,R,ugm-3
07-01-2008,14:00,0.0,R,ugm-3,3.6,R,ugm-3,3.6,R,ugm-3,68,R,ugm-3
07-01-2008,15:00,0.0,R,ugm-3,4.2,R,ugm-3,4.2,R,ugm-3,70,R,ugm-3
07-01-2008,16:00,0.0,R,ugm-3,2.1,R,ugm-3,2.1,R,ugm-3,72,R,ugm-3
07-01-2008,17:00,0.0,R,ugm-3,2.7,R,ugm-3,2.7,R,ugm-3,68,R,ugm-3
07-01-2008,18:00,0.0,R,ugm-3,2.1,R,ugm-3,2.1,R,ugm-3,72,R,ugm-3
07-01-2008,19:00,0.0,R,ugm-3,1.5,R,ugm-3,1.5,R,ugm-3,72,R,ugm-3
07-01-2008,20:00,0.0,R,ugm-3,2.1,R,ugm-3,2.1,R,ugm-3,68,R,ugm-3
07-01-2008,21:00,0.0,R,ugm-3,2.1,R,ugm-3,2.1,R,ugm-3,64,R,ugm-3
07-01-2008,22:00,0.0,R,ugm-3,3.2,R,ugm-3,3.2,R,ugm-3,58,R,ugm-3
07-01-2008,23:00,0.0,R,ugm-3,2.1,R,ugm-3,2.1,R,ugm-3,62,R,ugm-3
07-01-2008,24:00,0.0,R,ugm-3,1.5,R,ugm-3,1.5,R,ugm-3,62,R,ugm-3
08-01-2008,01:00,0.0,R,ugm-3,3.4,R,ugm-3,3.4,R,ugm-3,64,R,ugm-3
08-01-2008,02:00,,,,,,,,,,68,R,ugm-3
08-01-2008,03:00,,,,,,,,,,70,R,ugm-3
08-01-2008,04:00,0.0,R,ugm-3,4.2,R,ugm-3,4.2,R,ugm-3,72,R,ugm-3
08-01-2008,05:00,0.0,R,ugm-3,4.2,R,ugm-3,4.2,R,ugm-3,70,R,ugm-3
08-01-2008,06:00,0.0,R,ugm-3,4.2,R,ugm-3,4.2,R,ugm-3,68,R,ugm-3
08-01-2008,07:00,0.0,R,ugm-3,4.2,R,ugm-3,4.2,R,ugm-3,64,R,ugm-3
08-01-2008,08:00,0.0,R,ugm-3,5.7,R,ugm-3,5.7,R,ugm-3,64,R,ugm-3
08-01-2008,09:00,0.0,R,ugm-3,7.3,R,ugm-3,7.3,R,ugm-3,62,R,ugm-3
08-01-2008,10:00,0.4,R,ugm-3,10.3,R,ugm-3,10.9,R,ugm-3,58,R,ugm-3
08-01-2008,11:00,4.4,R,ugm-3,24.3,R,ugm-3,30.9,R,ugm-3,42,R,ugm-3
08-01-2008,12:00,4.8,R,ugm-3,32.7,R,ugm-3,39.9,R,ugm-3,34,R,ugm-3
08-01-2008,13:00,2.1,R,ugm-3,17.0,R,ugm-3,20.2,R,ugm-3,44,R,ugm-3
08-01-2008,14:00,1.0,R,ugm-3,12.8,R,ugm-3,14.3,R,ugm-3,50,R,ugm-3
08-01-2008,15:00,0.0,R,ugm-3,9.7,R,ugm-3,9.7,R,ugm-3,52,R,ugm-3
08-01-2008,16:00,0.4,R,ugm-3,18.1,R,ugm-3,18.7,R,ugm-3,42,R,ugm-3
08-01-2008,17:00,1.4,R,ugm-3,21.2,R,ugm-3,23.3,R,ugm-3,42,R,ugm-3
08-01-2008,18:00,0.0,R,ugm-3,7.8,R,ugm-3,7.8,R,ugm-3,68,R,ugm-3
08-01-2008,19:00,0.0,R,ugm-3,5.7,R,ugm-3,5.7,R,ugm-3,72,R,ugm-3
08-01-2008,20:00,0.0,R,ugm-3,4.2,R,ugm-3,4.2,R,ugm-3,70,R,ugm-3
08-01-2008,21:00,0.0,R,ugm-3,3.6,R,ugm-3,3.6,R,ugm-3,80,R,ugm-3
08-01-2008,22:00,0.0,R,ugm-3,3.6,R,ugm-3,3.6,R,ugm-3,78,R,ugm-3
08-01-2008,23:00,0.0,R,ugm-3,1.1,R,ugm-3,1.1,R,ugm-3,78,R,ugm-3
08-01-2008,24:00,0.0,R,ugm-3,0.0,R,ugm-3,0.0,R,ugm-3,76,R,ugm-3
09-01-2008,01:00,0.0,R,ugm-3,0.0,R,ugm-3,0.0,R,ugm-3,76,R,ugm-3
09-01-2008,02:00,,,,,,,,,,76,R,ugm-3
09-01-2008,03:00,,,,,,,,,,78,R,ugm-3
09-01-2008,04:00,0.0,R,ugm-3,0.0,R,ugm-3,0.0,R,ugm-3,78,R,ugm-3
09-01-2008,05:00,0.0,R,ugm-3,0.0,R,ugm-3,0.0,R,ugm-3,76,R,ugm-3
09-01-2008,06:00,0.0,R,ugm-3,0.0,R,ugm-3,0.0,R,ugm-3,78,R,ugm-3
09-01-2008,07:00,0.0,R,ugm-3,0.0,R,ugm-3,0.0,R,ugm-3,78,R,ugm-3
09-01-2008,08:00,0.0,R,ugm-3,0.6,R,ugm-3,0.6,R,ugm-3,80,R,ugm-3
09-01-2008,09:00,0.0,R,ugm-3,2.1,R,ugm-3,2.1,R,ugm-3,80,R,ugm-3
09-01-2008,10:00,0.0,R,ugm-3,2.7,R,ugm-3,2.7,R,ugm-3,78,R,ugm-3
09-01-2008,11:00,0.0,R,ugm-3,3.2,R,ugm-3,3.2,R,ugm-3,76,R,ugm-3
09-01-2008,12:00,0.0,R,ugm-3,4.2,R,ugm-3,4.2,R,ugm-3,74,R,ugm-3
09-01-2008,13:00,0.0,R,ugm-3,4.2,R,ugm-3,4.2,R,ugm-3,74,R,ugm-3
09-01-2008,14:00,0.0,R,ugm-3,3.6,R,ugm-3,3.6,R,ugm-3,76,R,ugm-3
09-01-2008,15:00,0.0,R,ugm-3,3.2,R,ugm-3,3.2,R,ugm-3,76,R,ugm-3
09-01-2008,16:00,0.0,R,ugm-3,4.2,R,ugm-3,4.2,R,ugm-3,76,R,ugm-3
09-01-2008,17:00,0.0,R,ugm-3,3.6,R,ugm-3,3.6,R,ugm-3,76,R,ugm-3
09-01-2008,18:00,0.0,R,ugm-3,4.8,R,ugm-3,4.8,R,ugm-3,70,R,ugm-3
09-01-2008,19:00,0.0,R,ugm-3,5.7,R,ugm-3,5.7,R,ugm-3,64,R,ugm-3
09-01-2008,20:00,0.0,R,ugm-3,4.8,R,ugm-3,4.8,R,ugm-3,66,R,ugm-3
09-01-2008,21:00,0.0,R,ugm-3,4.2,R,ugm-3,4.2,R,ugm-3,64,R,ugm-3
09-01-2008,22:00,0.0,R,ugm-3,4.2,R,ugm-3,4.2,R,ugm-3,64,R,ugm-3
09-01-2008,23:00,0.0,R,ugm-3,4.2,R,ugm-3,4.2,R,ugm-3,62,R,ugm-3
09-01-2008,24:00,0.0,R,ugm-3,6.3,R,ugm-3,6.3,R,ugm-3,56,R,ugm-3
10-01-2008,01:00,0.0,R,ugm-3,2.1,R,ugm-3,2.1,R,ugm-3,58,R,ugm-3
10-01-2008,02:00,,,,,,,,,,52,R,ugm-3
10-01-2008,03:00,,,,,,,,,,38,R,ugm-3
10-01-2008,04:00,0.0,R,ugm-3,10.9,R,ugm-3,10.9,R,ugm-3,32,R,ugm-3
10-01-2008,05:00,0.0,R,ugm-3,5.7,R,ugm-3,5.7,R,ugm-3,42,R,ugm-3
10-01-2008,06:00,0.0,R,ugm-3,7.8,R,ugm-3,7.8,R,ugm-3,30,R,ugm-3
10-01-2008,07:00,0.0,R,ugm-3,12.4,R,ugm-3,12.4,R,ugm-3,22,R,ugm-3
10-01-2008,08:00,1.0,R,ugm-3,24.4,R,ugm-3,26.0,R,ugm-3,18,R,ugm-3
10-01-2008,09:00,18.3,R,ugm-3,46.8,R,ugm-3,74.7,R,ugm-3,2,R,ugm-3
10-01-2008,10:00,46.3,R,ugm-3,59.0,R,ugm-3,129.7,R,ugm-3,2,R,ugm-3
10-01-2008,11:00,6.5,R,ugm-3,35.3,R,ugm-3,45.3,R,ugm-3,14,R,ugm-3
10-01-2008,12:00,3.8,R,ugm-3,34.8,R,ugm-3,40.5,R,ugm-3,24,R,ugm-3
10-01-2008,13:00,1.8,R,ugm-3,24.3,R,ugm-3,26.9,R,ugm-3,34,R,ugm-3
10-01-2008,14:00,1.8,R,ugm-3,24.3,R,ugm-3,26.9,R,ugm-3,38,R,ugm-3
10-01-2008,15:00,1.0,R,ugm-3,19.1,R,ugm-3,20.6,R,ugm-3,44,R,ugm-3
10-01-2008,16:00,0.0,R,ugm-3,6.3,R,ugm-3,6.3,R,ugm-3,60,R,ugm-3
10-01-2008,17:00,0.0,R,ugm-3,4.2,R,ugm-3,4.2,R,ugm-3,66,R,ugm-3
10-01-2008,18:00,0.0,R,ugm-3,2.1,R,ugm-3,2.1,R,ugm-3,72,R,ugm-3
10-01-2008,19:00,0.0,R,ugm-3,1.1,R,ugm-3,1.1,R,ugm-3,72,R,ugm-3
10-01-2008,20:00,0.0,R,ugm-3,2.1,R,ugm-3,2.1,R,ugm-3,70,R,ugm-3
10-01-2008,21:00,0.0,R,ugm-3,1.5,R,ugm-3,1.5,R,ugm-3,68,R,ugm-3
10-01-2008,22:00,0.0,R,ugm-3,2.1,R,ugm-3,2.1,R,ugm-3,66,R,ugm-3
10-01-2008,23:00,0.0,R,ugm-3,2.1,R,ugm-3,2.1,R,ugm-3,64,R,ugm-3
10-01-2008,24:00,0.0,R,ugm-3,2.1,R,ugm-3,2.1,R,ugm-3,64,R,ugm-3
11-01-2008,01:00,0.0,R,ugm-3,2.1,R,ugm-3,2.1,R,ugm-3,58,R,ugm-3
11-01-2008,02:00,,,,,,,,,,54,R,ugm-3
11-01-2008,03:00,,,,,,,,,,54,R,ugm-3
11-01-2008,04:00,0.0,R,ugm-3,2.1,R,ugm-3,2.1,R,ugm-3,54,R,ugm-3
11-01-2008,05:00,0.0,R,ugm-3,3.2,R,ugm-3,3.2,R,ugm-3,54,R,ugm-3
11-01-2008,06:00,0.0,R,ugm-3,4.2,R,ugm-3,4.2,R,ugm-3,52,R,ugm-3
11-01-2008,07:00,0.0,R,ugm-3,5.7,R,ugm-3,5.7,R,ugm-3,48,R,ugm-3
11-01-2008,08:00,0.0,R,ugm-3,14.5,R,ugm-3,14.5,R,ugm-3,38,R,ugm-3
11-01-2008,09:00,0.4,R,ugm-3,16.6,R,ugm-3,17.2,R,ugm-3,40,R,ugm-3
11-01-2008,10:00,0.0,R,ugm-3,5.7,R,ugm-3,5.7,R,ugm-3,56,R,ugm-3
11-01-2008,11:00,6.4,R,ugm-3,29.2,R,ugm-3,39.0,R,ugm-3,24,R,ugm-3
11-01-2008,12:00,5.4,R,ugm-3,22.9,R,ugm-3,31.1,R,ugm-3,32,R,ugm-3
11-01-2008,13:00,0.0,R,ugm-3,3.2,R,ugm-3,3.2,R,ugm-3,60,R,ugm-3
11-01-2008,14:00,0.4,R,ugm-3,7.3,R,ugm-3,7.8,R,ugm-3,56,R,ugm-3
11-01-2008,15:00,1.8,R,ugm-3,15.7,R,ugm-3,18.3,R,ugm-3,40,R,ugm-3
11-01-2008,16:00,8.1,R,ugm-3,25.0,R,ugm-3,37.4,R,ugm-3,24,R,ugm-3
11-01-2008,17:00,0.8,R,ugm-3,16.6,R,ugm-3,17.8,R,ugm-3,40,R,ugm-3
11-01-2008,18:00,0.0,R,ugm-3,22.9,R,ugm-3,22.9,R,ugm-3,34,R,ugm-3
11-01-2008,19:00,0.0,R,ugm-3,16.6,R,ugm-3,16.6,R,ugm-3,44,R,ugm-3
11-01-2008,20:00,0.0,R,ugm-3,11.8,R,ugm-3,11.8,R,ugm-3,46,R,ugm-3
11-01-2008,21:00,0.0,R,ugm-3,15.1,R,ugm-3,15.1,R,ugm-3,36,R,ugm-3
11-01-2008,22:00,0.0,R,ugm-3,28.1,R,ugm-3,28.1,R,ugm-3,16,R,ugm-3
11-01-2008,23:00,0.0,R,ugm-3,18.7,R,ugm-3,18.7,R,ugm-3,26,R,ugm-3
11-01-2008,24:00,0.0,R,ugm-3,11.5,R,ugm-3,11.5,R,ugm-3,30,R,ugm-3
12-01-2008,01:00,0.0,R,ugm-3,11.8,R,ugm-3,11.8,R,ugm-3,28,R,ugm-3
12-01-2008,02:00,,,,,,,,,,38,R,ugm-3
12-01-2008,03:00,,,,,,,,,,42,R,ugm-3
12-01-2008,04:00,0.0,R,ugm-3,2.7,R,ugm-3,2.7,R,ugm-3,44,R,ugm-3
12-01-2008,05:00,0.0,R,ugm-3,5.3,R,ugm-3,5.3,R,ugm-3,36,R,ugm-3
12-01-2008,06:00,0.8,R,ugm-3,11.5,R,ugm-3,12.6,R,ugm-3,26,R,ugm-3
12-01-2008,07:00,0.0,R,ugm-3,11.1,R,ugm-3,11.1,R,ugm-3,26,R,ugm-3
12-01-2008,08:00,0.8,R,ugm-3,10.9,R,ugm-3,12.0,R,ugm-3,34,R,ugm-3
12-01-2008,09:00,0.8,R,ugm-3,18.1,R,ugm-3,19.3,R,ugm-3,32,R,ugm-3
12-01-2008,10:00,4.1,R,ugm-3,26.5,R,ugm-3,32.9,R,ugm-3,20,R,ugm-3
12-01-2008,11:00,2.8,R,ugm-3,17.8,R,ugm-3,22.0,R,ugm-3,36,R,ugm-3
12-01-2008,12:00,1.4,R,ugm-3,5.3,R,ugm-3,7.4,R,ugm-3,54,R,ugm-3
12-01-2008,13:00,0.8,R,ugm-3,5.3,R,ugm-3,6.5,R,ugm-3,56,R,ugm-3
12-01-2008,14:00,0.0,R,ugm-3,3.6,R,ugm-3,3.6,R,ugm-3,58,R,ugm-3
12-01-2008,15:00,0.0,R,ugm-3,5.7,R,ugm-3,5.7,R,ugm-3,52,R,ugm-3
12-01-2008,16:00,0.4,R,ugm-3,9.4,R,ugm-3,9.9,R,ugm-3,44,R,ugm-3
12-01-2008,17:00,0.0,R,ugm-3,6.3,R,ugm-3,6.3,R,ugm-3,50,R,ugm-3
12-01-2008,18:00,1.4,R,ugm-3,17.2,R,ugm-3,19.3,R,ugm-3,28,R,ugm-3
12-01-2008,19:00,0.4,R,ugm-3,28.1,R,ugm-3,28.7,R,ugm-3,14,R,ugm-3
12-01-2008,20:00,7.5,R,ugm-3,35.5,R,ugm-3,47.0,R,ugm-3,4,R,ugm-3
12-01-2008,21:00,6.8,R,ugm-3,37.1,R,ugm-3,47.4,R,ugm-3,2,R,ugm-3
12-01-2008,22:00,3.4,R,ugm-3,30.8,R,ugm-3,35.9,R,ugm-3,4,R,ugm-3
12-01-2008,23:00,0.4,R,ugm-3,14.7,R,ugm-3,15.3,R,ugm-3,30,R,ugm-3
12-01-2008,24:00,0.8,R,ugm-3,3.6,R,ugm-3,4.8,R,ugm-3,38,R,ugm-3
13-01-2008,01:00,0.0,R,ugm-3,11.1,R,ugm-3,11.1,R,ugm-3,40,R,ugm-3
13-01-2008,02:00,,,,,,,,,,48,R,ugm-3
13-01-2008,03:00,,,,,,,,,,44,R,ugm-3
13-01-2008,04:00,0.0,R,ugm-3,5.3,R,ugm-3,5.3,R,ugm-3,40,R,ugm-3
13-01-2008,05:00,0.0,R,ugm-3,3.6,R,ugm-3,3.6,R,ugm-3,42,R,ugm-3
13-01-2008,06:00,0.0,R,ugm-3,2.1,R,ugm-3,2.1,R,ugm-3,70,R,ugm-3
13-01-2008,07:00,0.0,R,ugm-3,1.5,R,ugm-3,1.5,R,ugm-3,74,R,ugm-3
13-01-2008,08:00,0.0,R,ugm-3,1.5,R,ugm-3,1.5,R,ugm-3,74,R,ugm-3
13-01-2008,09:00,0.0,R,ugm-3,2.1,R,ugm-3,2.1,R,ugm-3,76,R,ugm-3
13-01-2008,10:00,0.0,R,ugm-3,1.5,R,ugm-3,1.5,R,ugm-3,76,R,ugm-3
13-01-2008,11:00,0.0,R,ugm-3,2.1,R,ugm-3,2.1,R,ugm-3,76,R,ugm-3
13-01-2008,12:00,0.0,R,ugm-3,1.5,R,ugm-3,1.5,R,ugm-3,76,R,ugm-3
13-01-2008,13:00,0.0,R,ugm-3,2.1,R,ugm-3,2.1,R,ugm-3,76,R,ugm-3
13-01-2008,14:00,0.0,R,ugm-3,0.6,R,ugm-3,0.6,R,ugm-3,76,R,ugm-3
13-01-2008,15:00,0.0,R,ugm-3,2.1,R,ugm-3,2.1,R,ugm-3,72,R,ugm-3
13-01-2008,16:00,0.0,R,ugm-3,2.1,R,ugm-3,2.1,R,ugm-3,72,R,ugm-3
13-01-2008,17:00,0.0,R,ugm-3,2.1,R,ugm-3,2.1,R,ugm-3,76,R,ugm-3
13-01-2008,18:00,0.0,R,ugm-3,2.1,R,ugm-3,2.1,R,ugm-3,74,R,ugm-3
13-01-2008,19:00,0.0,R,ugm-3,2.1,R,ugm-3,2.1,R,ugm-3,72,R,ugm-3
13-01-2008,20:00,0.0,R,ugm-3,2.1,R,ugm-3,2.1,R,ugm-3,68,R,ugm-3
13-01-2008,21:00,0.0,R,ugm-3,5.3,R,ugm-3,5.3,R,ugm-3,60,R,ugm-3
13-01-2008,22:00,0.0,R,ugm-3,6.3,R,ugm-3,6.3,R,ugm-3,52,R,ugm-3
13-01-2008,23:00,0.0,R,ugm-3,7.4,R,ugm-3,7.4,R,ugm-3,48,R,ugm-3
13-01-2008,24:00,0.0,R,ugm-3,4.2,R,ugm-3,4.2,R,ugm-3,54,R,ugm-3
14-01-2008,01:00,0.0,R,ugm-3,4.2,R,ugm-3,4.2,R,ugm-3,52,R,ugm-3
14-01-2008,02:00,,,,,,,,,,50,R,ugm-3
14-01-2008,03:00,,,,,,,,,,56,R,ugm-3
14-01-2008,04:00,0.0,R,ugm-3,3.6,R,ugm-3,3.6,R,ugm-3,58,R,ugm-3
14-01-2008,05:00,0.0,R,ugm-3,2.7,R,ugm-3,2.7,R,ugm-3,58,R,ugm-3
14-01-2008,06:00,0.0,R,ugm-3,3.2,R,ugm-3,3.2,R,ugm-3,54,R,ugm-3
14-01-2008,07:00,0.0,R,ugm-3,5.7,R,ugm-3,5.7,R,ugm-3,52,R,ugm-3
14-01-2008,08:00,0.0,R,ugm-3,10.5,R,ugm-3,10.5,R,ugm-3,44,R,ugm-3
14-01-2008,09:00,19.4,R,ugm-3,38.8,R,ugm-3,68.4,R,ugm-3,12,R,ugm-3
14-01-2008,10:00,12.3,R,ugm-3,40.3,R,ugm-3,59.0,R,ugm-3,12,R,ugm-3
14-01-2008,11:00,2.4,R,ugm-3,16.8,R,ugm-3,20.4,R,ugm-3,32,R,ugm-3
14-01-2008,12:00,4.5,R,ugm-3,17.8,R,ugm-3,24.6,R,ugm-3,34,R,ugm-3
14-01-2008,13:00,5.9,R,ugm-3,24.4,R,ugm-3,33.4,R,ugm-3,26,R,ugm-3
14-01-2008,14:00,6.5,R,ugm-3,28.3,R,ugm-3,38.2,R,ugm-3,20,R,ugm-3
14-01-2008,15:00,4.9,R,ugm-3,33.4,R,ugm-3,40.9,R,ugm-3,16,R,ugm-3
14-01-2008,16:00,7.1,R,ugm-3,45.1,R,ugm-3,56.0,R,ugm-3,8,R,ugm-3
14-01-2008,17:00,6.1,R,ugm-3,42.4,R,ugm-3,51.8,R,ugm-3,10,R,ugm-3
14-01-2008,18:00,1.8,R,ugm-3,18.9,R,ugm-3,21.6,R,ugm-3,38,R,ugm-3
14-01-2008,19:00,0.0,R,ugm-3,10.5,R,ugm-3,10.5,R,ugm-3,44,R,ugm-3
14-01-2008,20:00,0.0,R,ugm-3,11.1,R,ugm-3,11.1,R,ugm-3,34,R,ugm-3
14-01-2008,21:00,0.0,R,ugm-3,13.8,R,ugm-3,13.8,R,ugm-3,32,R,ugm-3
14-01-2008,22:00,0.0,R,ugm-3,12.6,R,ugm-3,12.6,R,ugm-3,36,R,ugm-3
14-01-2008,23:00,0.0,R,ugm-3,7.4,R,ugm-3,7.4,R,ugm-3,40,R,ugm-3
14-01-2008,24:00,0.0,R,ugm-3,7.4,R,ugm-3,7.4,R,ugm-3,40,R,ugm-3
15-01-2008,01:00,0.0,R,ugm-3,5.5,R,ugm-3,5.5,R,ugm-3,40,R,ugm-3
15-01-2008,02:00,,,,,,,,,,44,R,ugm-3
15-01-2008,03:00,,,,,,,,,,44,R,ugm-3
15-01-2008,04:00,0.0,R,ugm-3,3.6,R,ugm-3,3.6,R,ugm-3,42,R,ugm-3
15-01-2008,05:00,0.0,R,ugm-3,5.3,R,ugm-3,5.3,R,ugm-3,38,R,ugm-3
15-01-2008,06:00,0.0,R,ugm-3,11.7,R,ugm-3,11.7,R,ugm-3,30,R,ugm-3
15-01-2008,07:00,3.4,R,ugm-3,25.8,R,ugm-3,30.9,R,ugm-3,14,R,ugm-3
15-01-2008,08:00,10.0,R,ugm-3,43.0,R,ugm-3,58.3,R,ugm-3,6,R,ugm-3
15-01-2008,09:00,19.1,R,ugm-3,51.4,R,ugm-3,80.6,R,ugm-3,6,R,ugm-3
15-01-2008,10:00,17.4,R,ugm-3,56.7,R,ugm-3,83.3,R,ugm-3,4,R,ugm-3
15-01-2008,11:00,19.5,R,ugm-3,55.8,R,ugm-3,85.6,R,ugm-3,6,R,ugm-3
15-01-2008,12:00,20.9,R,ugm-3,53.7,R,ugm-3,85.6,R,ugm-3,8,R,ugm-3
15-01-2008,13:00,4.9,R,ugm-3,26.2,R,ugm-3,33.6,R,ugm-3,24,R,ugm-3
15-01-2008,14:00,3.8,R,ugm-3,25.8,R,ugm-3,31.5,R,ugm-3,34,R,ugm-3
15-01-2008,15:00,2.8,R,ugm-3,20.1,R,ugm-3,24.3,R,ugm-3,40,R,ugm-3
15-01-2008,16:00,2.8,R,ugm-3,19.5,R,ugm-3,23.7,R,ugm-3,42,R,ugm-3
15-01-2008,17:00,2.8,R,ugm-3,22.2,R,ugm-3,26.4,R,ugm-3,42,R,ugm-3
15-01-2008,18:00,2.8,R,ugm-3,20.4,R,ugm-3,24.6,R,ugm-3,44,R,ugm-3
15-01-2008,19:00,1.0,R,ugm-3,16.8,R,ugm-3,18.3,R,ugm-3,44,R,ugm-3
15-01-2008,20:00,0.0,R,ugm-3,9.6,R,ugm-3,9.6,R,ugm-3,54,R,ugm-3
15-01-2008,21:00,0.0,R,ugm-3,6.9,R,ugm-3,6.9,R,ugm-3,56,R,ugm-3
15-01-2008,22:00,0.0,R,ugm-3,6.3,R,ugm-3,6.3,R,ugm-3,58,R,ugm-3
15-01-2008,23:00,0.0,R,ugm-3,5.3,R,ugm-3,5.3,R,ugm-3,58,R,ugm-3
15-01-2008,24:00,0.0,R,ugm-3,2.7,R,ugm-3,2.7,R,ugm-3,60,R,ugm-3
16-01-2008,01:00,0.0,R,ugm-3,2.1,R,ugm-3,2.1,R,ugm-3,64,R,ugm-3
16-01-2008,02:00,,,,,,,,,,62,R,ugm-3
16-01-2008,03:00,,,,,,,,,,64,R,ugm-3
16-01-2008,04:00,0.0,R,ugm-3,2.1,R,ugm-3,2.1,R,ugm-3,64,R,ugm-3
16-01-2008,05:00,0.0,R,ugm-3,2.1,R,ugm-3,2.1,R,ugm-3,64,R,ugm-3
16-01-2008,06:00,0.0,R,ugm-3,2.1,R,ugm-3,2.1,R,ugm-3,64,R,ugm-3
16-01-2008,07:00,0.0,R,ugm-3,8.4,R,ugm-3,8.4,R,ugm-3,58,R,ugm-3
16-01-2008,08:00,0.0,R,ugm-3,14.1,R,ugm-3,14.1,R,ugm-3,54,R,ugm-3
16-01-2008,09:00,0.4,R,ugm-3,18.9,R,ugm-3,19.5,R,ugm-3,50,R,ugm-3
16-01-2008,10:00,3.1,R,ugm-3,30.6,R,ugm-3,35.3,R,ugm-3,40,R,ugm-3
16-01-2008,11:00,4.9,R,ugm-3,27.9,R,ugm-3,35.3,R,ugm-3,42,R,ugm-3
16-01-2008,12:00,,,,,,,,,,,,
16-01-2008,13:00,,,,,,,,,,,,
16-01-2008,14:00,9.0,R,ugm-3,12.6,R,ugm-3,26.4,R,ugm-3,60,R,ugm-3
16-01-2008,15:00,21.3,R,ugm-3,29.6,R,ugm-3,62.1,R,ugm-3,46,R,ugm-3
16-01-2008,16:00,2.4,R,ugm-3,19.5,R,ugm-3,23.1,R,ugm-3,42,R,ugm-3
16-01-2008,17:00,8.9,R,ugm-3,43.2,R,ugm-3,56.7,R,ugm-3,20,R,ugm-3
16-01-2008,18:00,20.3,R,ugm-3,49.5,R,ugm-3,80.4,R,ugm-3,8,R,ugm-3
16-01-2008,19:00,3.1,R,ugm-3,31.5,R,ugm-3,36.3,R,ugm-3,16,R,ugm-3
16-01-2008,20:00,1.8,R,ugm-3,30.6,R,ugm-3,33.2,R,ugm-3,22,R,ugm-3
16-01-2008,21:00,0.0,R,ugm-3,23.7,R,ugm-3,23.7,R,ugm-3,28,R,ugm-3